Regional Weather Roundup
Issued by NWS Newport/Morehead, NC

Current Version | Previous Version | Text Only | Print | Product List | Glossary On
Versions: 1 2 3 4 5 6 7 8 9 10 11 12 13 14 15 16 17 18 19 20 21 22 23 24 25 26 27 28 29 30 31 32 33 34 35 36 37 38 39
000 ASUS42 KMHX 170614 RWRMHX WEATHER ROUNDUP FOR EASTERN NORTH CAROLINA NATIONAL WEATHER SERVICE NEWPORT/MOREHEAD CITY NC 200 AM EDT THU AUG 17 2017 NOTE: "FAIR" INDICATES FEW OR NO CLOUDS BELOW 12,000 FEET WITH NO SIGNIFICANT WEATHER AND/OR OBSTRUCTIONS TO VISIBILITY NCZ015>017-031-032-045>047-102-103-170700- NORTH COAST CITY SKY/WX TMP DP RH WIND PRES REMARKS EDENTON CLEAR 74 72 93 CALM 30.05S ELIZABETH CITY FOG 72 72 100 CALM 30.04S VSB 1/4 KITTY HAWK CLEAR 74 74 100 CALM 30.02F MANTEO PTCLDY 73 72 97 CALM 30.04S $$ NCZ045>047-081-094-103-104-170700- CENTRAL COAST CITY SKY/WX TMP DP RH WIND PRES REMARKS FRISCO CLOUDY 76 75 97 NE3 30.03S $$ NCZ095-097-098-100-101-170700- SOUTHERN COAST CITY SKY/WX TMP DP RH WIND PRES REMARKS BEAUFORT CLEAR 76 76 100 CALM 30.03S CEDAR ISLAND NOT AVBL JACKSONVILLE CLEAR 77 77 100 CALM 30.02F FOG PINEY ISLAND CLEAR N/A N/A N/A W3 30.03S WILMINGTON NOT AVBL $$ NCZ011>013-027>030-043-044-078>080-089-090>093-098-170700- COASTAL PLAIN CITY SKY/WX TMP DP RH WIND PRES REMARKS AHOSKIE FOG 71 71 99 CALM 30.04F VSB 1/4 CLINTON CLOUDY 76 76 100 CALM 30.04S ELIZABETHTOWN NOT AVBL GOLDSBORO PTCLDY 76 73 90 SW1 30.03F FOG GREENVILLE CLEAR 77 77 100 CALM 30.05F HAVELOCK CLEAR 76 74 93 E3 30.04S KENANSVILLE CLEAR 75 73 94 CALM 30.03F FOG KINSTON PTCLDY 75 74 96 CALM 30.04S NEW BERN FOG 76 76 100 CALM 30.04F VSB 1/2 RICHLANDS PTCLDY 75 75 100 CALM 30.03F FOG ROCKY MOUNT CLEAR 73 73 100 CALM 30.04F FOG WASHINGTON PTCLDY 76 75 97 CALM 30.04F WHITEVILLE CLEAR 75 74 97 CALM 30.02F $$ AMZ130-135-150-152-154-156-158-170-250-252-270-ANZ085-086-088-633-658-670-170700- MARINE OBSERVATIONS STATION/POSITION TIME TEMP WIND PRES WAVE SWELL AIR SEA DIR/SP/G HT/PER HT/PER (UTC) (F) (DEG/KT/KT) (MB) (FT/S) (FT/S) CHESAPEAKE LIGHT NOT AVBL 64 E VA BEACH 0550 76 77 100/ 2/ 2 1017.1 2/ 8 2/ 8 DUCK 0542 77 78 60/ 4/ 4 1016.6 2 E DUCK 0530 78 N/A 2/ 6 OREGON INLET 0542 76 82 360/ 2/ 4 1016.7 13E OREGON INLT 0548 79 N/A 2/ 7 2/ 7 HATTERAS CG 0542 78 83 20/ 5/ 6 1016.7 DIAMOND BUOY 0550 80 83 360/ 6/ 8 1016.5 2/ 7 2/ 7 CAPE LOOKOUT 0600 80 CALM 1016.7 BEAUFORT LAB 0542 80 82 CALM 1016.5 30 SE NEW RVR IN 0508 79 84 CALM / 2 1017.1 30 SE NEW RVR IN 0543 84 N/A 2/ 7 27 SE WRIGHTSVLE 0508 83 83 170/ 2/ 4 1016.9 5 SE WRIGHTSVLE 0508 81 83 300/ 4/ 4 1016.6 225 S CAPE HAT 0550 81 84 310/ 14/ 17 1016.5 3/ 6 2/ 7 41 SE CHARLESTON 0600 84 84 230/ 8/ 10 1016.0 $$

USA.gov is the U.S. government's official web portal to all federal, state and local government web resources and services.